Time,TemperatureF,DewpointF,PressureIn,WindDirection,WindDirectionDegrees,WindSpeedMPH,WindSpeedGustMPH,Humidity,HourlyPrecipIn,Conditions,Clouds,dailyrainin,SoftwareType,DateUTC
2013-11-10 00:05:00,59.9,45.5,29.68,North,0,0.0,0.0,59,0.00,,BKN,0.00,VWS V14.01,2013-11-10 06:05:00,
2013-11-10 00:10:00,60.1,45.7,29.68,North,0,0.0,0.0,59,0.00,,BKN,0.00,VWS V14.01,2013-11-10 06:10:00,
2013-11-10 00:15:00,60.1,46.2,29.68,North,0,0.0,0.0,60,0.00,,BKN,0.00,VWS V14.01,2013-11-10 06:15:00,
2013-11-10 00:20:00,60.1,45.7,29.65,North,0,0.0,0.0,59,0.00,,BKN,0.00,VWS V14.01,2013-11-10 06:20:00,
2013-11-10 00:25:00,59.9,45.1,29.65,North,0,0.0,0.0,58,0.00,,BKN,0.00,VWS V14.01,2013-11-10 06:25:00,
2013-11-10 00:30:00,59.9,45.1,29.65,North,0,0.0,0.0,58,0.00,,BKN,0.00,VWS V14.01,2013-11-10 06:30:00,
2013-11-10 00:35:00,59.7,44.9,29.65,North,0,0.0,0.0,58,0.00,,BKN,0.00,VWS V14.01,2013-11-10 06:35:00,
2013-11-10 00:40:00,59.7,44.9,29.65,North,0,0.0,0.0,58,0.00,,BKN,0.00,VWS V14.01,2013-11-10 06:40:00,
2013-11-10 00:46:00,59.7,44.9,29.65,North,0,0.0,0.0,58,0.00,,BKN,0.00,VWS V14.01,2013-11-10 06:46:00,
2013-11-10 00:51:00,59.5,42.9,29.68,North,0,0.0,0.0,54,0.00,,BKN,0.00,VWS V14.01,2013-11-10 06:51:00,
2013-11-10 00:56:00,59.4,42.2,29.68,North,0,0.0,0.0,53,0.00,,BKN,0.00,VWS V14.01,2013-11-10 06:56:00,
2013-11-10 01:01:00,59.2,42.6,29.68,North,0,0.0,0.0,54,0.00,,BKN,0.00,VWS V14.01,2013-11-10 07:01:00,
2013-11-10 01:06:00,59.4,42.7,29.68,North,0,0.0,0.0,54,0.00,,BKN,0.00,VWS V14.01,2013-11-10 07:06:00,
2013-11-10 01:11:00,59.4,43.2,29.68,North,0,0.0,0.0,55,0.00,,BKN,0.00,VWS V14.01,2013-11-10 07:11:00,
2013-11-10 01:16:00,59.4,43.2,29.68,North,0,0.0,0.0,55,0.00,,BKN,0.00,VWS V14.01,2013-11-10 07:16:00,
2013-11-10 01:22:00,59.4,42.7,29.68,North,0,0.0,0.0,54,0.00,,BKN,0.00,VWS V14.01,2013-11-10 07:22:00,
2013-11-10 01:27:00,59.4,42.7,29.68,North,0,0.0,0.0,54,0.00,,BKN,0.00,VWS V14.01,2013-11-10 07:27:00,
2013-11-10 01:32:00,59.4,42.7,29.68,North,0,0.0,0.0,54,0.00,,BKN,0.00,VWS V14.01,2013-11-10 07:32:00,
2013-11-10 01:37:00,59.2,42.6,29.68,North,0,0.0,0.0,54,0.00,,BKN,0.00,VWS V14.01,2013-11-10 07:37:00,
2013-11-10 01:42:00,59.2,43.0,29.68,North,0,0.0,0.0,55,0.00,,BKN,0.00,VWS V14.01,2013-11-10 07:42:00,
2013-11-10 01:47:00,59.2,43.0,29.68,North,0,0.0,0.0,55,0.00,,BKN,0.00,VWS V14.01,2013-11-10 07:47:00,
2013-11-10 01:53:00,59.2,43.0,29.68,North,0,0.0,0.0,55,0.00,,BKN,0.00,VWS V14.01,2013-11-10 07:53:00,
2013-11-10 01:58:00,59.2,43.0,29.68,North,0,0.0,0.0,55,0.00,,BKN,0.00,VWS V14.01,2013-11-10 07:58:00,
2013-11-10 02:03:00,59.2,43.5,29.68,North,0,0.0,0.0,56,0.00,,BKN,0.00,VWS V14.01,2013-11-10 08:03:00,
2013-11-10 02:08:00,59.2,43.5,29.68,North,0,0.0,0.0,56,0.00,,BKN,0.00,VWS V14.01,2013-11-10 08:08:00,
2013-11-10 02:13:00,59.2,43.5,29.68,North,0,0.0,0.0,56,0.00,,BKN,0.00,VWS V14.01,2013-11-10 08:13:00,
2013-11-10 02:18:00,59.2,44.0,29.68,North,0,0.0,0.0,57,0.00,,BKN,0.00,VWS V14.01,2013-11-10 08:18:00,
2013-11-10 02:23:00,59.2,44.0,29.68,North,0,0.0,0.0,57,0.00,,BKN,0.00,VWS V14.01,2013-11-10 08:23:00,
2013-11-10 02:28:00,59.2,44.0,29.68,North,0,0.0,0.0,57,0.00,,BKN,0.00,VWS V14.01,2013-11-10 08:28:00,
2013-11-10 02:34:00,59.2,44.0,29.68,North,0,0.0,0.0,57,0.00,,BKN,0.00,VWS V14.01,2013-11-10 08:34:00,
2013-11-10 02:39:00,59.2,44.0,29.68,North,0,0.0,0.0,57,0.00,,BKN,0.00,VWS V14.01,2013-11-10 08:39:00,
2013-11-10 02:44:00,59.0,43.8,29.68,North,0,0.0,0.0,57,0.00,,BKN,0.00,VWS V14.01,2013-11-10 08:44:00,
2013-11-10 02:49:00,59.0,43.8,29.68,North,0,0.0,0.0,57,0.00,,BKN,0.00,VWS V14.01,2013-11-10 08:49:00,
2013-11-10 02:54:00,59.0,43.8,29.68,North,0,0.0,0.0,57,0.00,,BKN,0.00,VWS V14.01,2013-11-10 08:54:00,
2013-11-10 02:59:00,59.0,44.3,29.68,North,0,0.0,0.0,58,0.00,,BKN,0.00,VWS V14.01,2013-11-10 08:59:00,
2013-11-10 03:04:00,59.0,44.3,29.68,North,0,0.0,0.0,58,0.00,,BKN,0.00,VWS V14.01,2013-11-10 09:04:00,
2013-11-10 03:10:00,59.0,44.3,29.68,North,0,0.0,0.0,58,0.00,,BKN,0.00,VWS V14.01,2013-11-10 09:10:00,
2013-11-10 03:15:00,59.0,44.7,29.68,North,0,0.0,0.0,59,0.00,,BKN,0.00,VWS V14.01,2013-11-10 09:15:00,
2013-11-10 03:20:00,58.8,45.0,29.68,North,0,0.0,0.0,60,0.00,,BKN,0.00,VWS V14.01,2013-11-10 09:20:00,
2013-11-10 03:25:00,58.8,45.0,29.68,North,0,0.0,0.0,60,0.00,,BKN,0.00,VWS V14.01,2013-11-10 09:25:00,
2013-11-10 03:30:00,58.8,45.0,29.68,North,0,0.0,0.0,60,0.00,,BKN,0.00,VWS V14.01,2013-11-10 09:30:00,
2013-11-10 03:35:00,58.8,45.0,29.68,North,0,0.0,0.0,60,0.00,,BKN,0.00,VWS V14.01,2013-11-10 09:35:00,
2013-11-10 03:40:00,58.6,44.8,29.68,North,0,0.0,0.0,60,0.00,,BKN,0.00,VWS V14.01,2013-11-10 09:40:00,
2013-11-10 03:45:00,58.5,44.2,29.68,North,0,0.0,0.0,59,0.00,,BKN,0.00,VWS V14.01,2013-11-10 09:45:00,
2013-11-10 03:50:00,58.5,44.6,29.71,North,0,0.0,0.0,60,0.00,,BKN,0.00,VWS V14.01,2013-11-10 09:50:00,
2013-11-10 03:55:00,58.5,44.6,29.71,North,0,0.0,0.0,60,0.00,,BKN,0.00,VWS V14.01,2013-11-10 09:55:00,
2013-11-10 04:01:00,58.5,44.6,29.71,North,0,0.0,0.0,60,0.00,,BKN,0.00,VWS V14.01,2013-11-10 10:01:00,
2013-11-10 04:06:00,58.5,44.6,29.71,North,0,0.0,0.0,60,0.00,,BKN,0.00,VWS V14.01,2013-11-10 10:06:00,
2013-11-10 04:11:00,58.5,44.6,29.71,North,0,0.0,0.0,60,0.00,,BKN,0.00,VWS V14.01,2013-11-10 10:11:00,
2013-11-10 04:16:00,58.5,44.6,29.71,North,0,0.0,0.0,60,0.00,,BKN,0.00,VWS V14.01,2013-11-10 10:16:00,
2013-11-10 04:21:00,58.5,44.6,29.71,North,0,0.0,0.0,60,0.00,,BKN,0.00,VWS V14.01,2013-11-10 10:21:00,
2013-11-10 04:26:00,58.5,44.6,29.71,North,0,0.0,0.0,60,0.00,,BKN,0.00,VWS V14.01,2013-11-10 10:26:00,
2013-11-10 04:31:00,58.3,44.5,29.71,North,0,0.0,0.0,60,0.00,,BKN,0.00,VWS V14.01,2013-11-10 10:31:00,
2013-11-10 04:36:00,58.3,44.5,29.71,North,0,0.0,0.0,60,0.00,,BKN,0.00,VWS V14.01,2013-11-10 10:36:00,
2013-11-10 04:40:00,58.3,44.5,29.71,North,0,0.0,0.0,60,0.00,,BKN,0.00,VWS V14.01,2013-11-10 10:40:00,
2013-11-10 04:45:00,58.3,44.5,29.71,North,0,0.0,0.0,60,0.00,,BKN,0.00,VWS V14.01,2013-11-10 10:45:00,
2013-11-10 04:50:00,58.3,44.5,29.71,North,0,0.0,0.0,60,0.00,,BKN,0.00,VWS V14.01,2013-11-10 10:50:00,
2013-11-10 04:55:00,58.1,44.3,29.71,North,0,0.0,0.0,60,0.00,,BKN,0.00,VWS V14.01,2013-11-10 10:55:00,
2013-11-10 05:00:00,58.1,44.3,29.71,North,0,0.0,0.0,60,0.00,,BKN,0.00,VWS V14.01,2013-11-10 11:00:00,
2013-11-10 05:05:00,58.1,44.3,29.71,North,0,0.0,0.0,60,0.00,,BKN,0.00,VWS V14.01,2013-11-10 11:05:00,
2013-11-10 05:10:00,58.1,44.3,29.71,North,0,0.0,0.0,60,0.00,,BKN,0.00,VWS V14.01,2013-11-10 11:10:00,
2013-11-10 05:15:00,58.1,44.3,29.71,North,0,0.0,0.0,60,0.00,,BKN,0.00,VWS V14.01,2013-11-10 11:15:00,
2013-11-10 05:20:00,57.9,44.1,29.71,North,0,0.0,0.0,60,0.00,,BKN,0.00,VWS V14.01,2013-11-10 11:20:00,
2013-11-10 05:25:00,58.1,44.3,29.71,North,0,0.0,0.0,60,0.00,,BKN,0.00,VWS V14.01,2013-11-10 11:25:00,
2013-11-10 05:30:00,58.1,44.3,29.71,North,0,0.0,0.0,60,0.00,,BKN,0.00,VWS V14.01,2013-11-10 11:30:00,
2013-11-10 05:35:00,58.1,44.7,29.71,North,0,0.0,0.0,61,0.00,,BKN,0.00,VWS V14.01,2013-11-10 11:35:00,
2013-11-10 05:41:00,58.1,44.7,29.71,North,0,0.0,0.0,61,0.00,,BKN,0.00,VWS V14.01,2013-11-10 11:41:00,
2013-11-10 05:46:00,58.1,44.7,29.71,North,0,0.0,0.0,61,0.00,,BKN,0.00,VWS V14.01,2013-11-10 11:46:00,
2013-11-10 05:51:00,58.1,44.7,29.74,North,0,0.0,0.0,61,0.00,,BKN,0.00,VWS V14.01,2013-11-10 11:51:00,
2013-11-10 05:56:00,58.1,44.7,29.74,North,0,0.0,0.0,61,0.00,,BKN,0.00,VWS V14.01,2013-11-10 11:56:00,
2013-11-10 06:01:00,58.1,44.7,29.74,North,0,0.0,0.0,61,0.00,,BKN,0.00,VWS V14.01,2013-11-10 12:01:00,
2013-11-10 06:06:00,58.1,45.2,29.74,North,0,0.0,0.0,62,0.00,,BKN,0.00,VWS V14.01,2013-11-10 12:06:00,
2013-11-10 06:11:00,58.1,45.2,29.74,North,0,0.0,0.0,62,0.00,,BKN,0.00,VWS V14.01,2013-11-10 12:11:00,
2013-11-10 06:16:00,58.1,45.2,29.74,North,0,0.0,0.0,62,0.00,,BKN,0.00,VWS V14.01,2013-11-10 12:16:00,
2013-11-10 06:21:00,58.1,45.2,29.74,North,0,0.0,0.0,62,0.00,,BKN,0.00,VWS V14.01,2013-11-10 12:21:00,
2013-11-10 06:26:00,58.1,45.2,29.74,North,0,0.0,0.0,62,0.00,,BKN,0.00,VWS V14.01,2013-11-10 12:26:00,
2013-11-10 06:31:00,58.1,45.6,29.74,North,0,0.0,0.0,63,0.00,,BKN,0.00,VWS V14.01,2013-11-10 12:31:00,
2013-11-10 06:37:00,58.1,45.6,29.74,North,0,0.0,0.0,63,0.00,,BKN,0.00,VWS V14.01,2013-11-10 12:37:00,
2013-11-10 06:42:00,58.1,45.6,29.74,North,0,0.0,0.0,63,0.00,,BKN,0.00,VWS V14.01,2013-11-10 12:42:00,
2013-11-10 06:47:00,58.1,45.6,29.74,North,0,0.0,0.0,63,0.00,,BKN,0.00,VWS V14.01,2013-11-10 12:47:00,
2013-11-10 06:52:00,58.1,45.6,29.74,North,0,0.0,0.0,63,0.00,,BKN,0.00,VWS V14.01,2013-11-10 12:52:00,
2013-11-10 06:57:00,57.9,45.4,29.74,North,0,0.0,0.0,63,0.00,,BKN,0.00,VWS V14.01,2013-11-10 12:57:00,
2013-11-10 07:02:00,57.9,45.4,29.74,North,0,0.0,0.0,63,0.00,,BKN,0.00,VWS V14.01,2013-11-10 13:02:00,
2013-11-10 07:07:00,57.9,45.4,29.74,North,0,0.0,0.0,63,0.00,,BKN,0.00,VWS V14.01,2013-11-10 13:07:00,
2013-11-10 07:12:00,57.9,45.4,29.74,North,0,0.0,0.0,63,0.00,,BKN,0.00,VWS V14.01,2013-11-10 13:12:00,
2013-11-10 07:17:00,57.9,45.8,29.74,North,0,0.0,0.0,64,0.00,,BKN,0.00,VWS V14.01,2013-11-10 13:17:00,
2013-11-10 07:22:00,58.1,46.0,29.74,North,0,0.0,0.0,64,0.00,,BKN,0.00,VWS V14.01,2013-11-10 13:22:00,
2013-11-10 07:28:00,58.1,46.0,29.74,North,0,0.0,0.0,64,0.00,,BKN,0.00,VWS V14.01,2013-11-10 13:28:00,
2013-11-10 07:33:00,57.9,45.8,29.74,North,0,0.0,0.0,64,0.00,,BKN,0.00,VWS V14.01,2013-11-10 13:33:00,
2013-11-10 07:38:00,57.9,45.8,29.77,North,0,0.0,0.0,64,0.00,,BKN,0.00,VWS V14.01,2013-11-10 13:38:00,
2013-11-10 07:43:00,57.9,45.8,29.77,North,0,0.0,0.0,64,0.00,,BKN,0.00,VWS V14.01,2013-11-10 13:43:00,
2013-11-10 07:48:00,57.9,45.8,29.77,North,0,0.0,0.0,64,0.00,,BKN,0.00,VWS V14.01,2013-11-10 13:48:00,
2013-11-10 07:53:00,57.9,45.8,29.77,North,0,0.0,0.0,64,0.00,,BKN,0.00,VWS V14.01,2013-11-10 13:53:00,
2013-11-10 07:58:00,58.1,46.0,29.77,North,0,0.0,0.0,64,0.00,,BKN,0.00,VWS V14.01,2013-11-10 13:58:00,
2013-11-10 08:04:00,58.1,46.0,29.77,North,0,0.0,0.0,64,0.00,,BKN,0.00,VWS V14.01,2013-11-10 14:04:00,
2013-11-10 08:09:00,58.1,46.0,29.77,North,0,0.0,0.0,64,0.00,,BKN,0.00,VWS V14.01,2013-11-10 14:09:00,
2013-11-10 08:14:00,58.3,46.2,29.77,North,0,0.0,0.0,64,0.00,,BKN,0.00,VWS V14.01,2013-11-10 14:14:00,
2013-11-10 08:19:00,58.3,46.6,29.77,North,0,0.0,0.0,65,0.00,,BKN,0.00,VWS V14.01,2013-11-10 14:19:00,
2013-11-10 08:24:00,58.3,46.6,29.77,North,0,0.0,0.0,65,0.00,,BKN,0.00,VWS V14.01,2013-11-10 14:24:00,
2013-11-10 08:29:00,58.3,46.6,29.77,North,0,0.0,0.0,65,0.00,,BKN,0.00,VWS V14.01,2013-11-10 14:29:00,
2013-11-10 08:34:00,58.5,46.8,29.77,North,0,0.0,0.0,65,0.00,,BKN,0.00,VWS V14.01,2013-11-10 14:34:00,
2013-11-10 08:40:00,58.5,46.8,29.77,North,0,0.0,0.0,65,0.00,,BKN,0.00,VWS V14.01,2013-11-10 14:40:00,
2013-11-10 08:45:00,58.5,46.8,29.77,North,0,0.0,0.0,65,0.00,,BKN,0.00,VWS V14.01,2013-11-10 14:45:00,
2013-11-10 08:50:00,58.6,46.9,29.77,North,0,0.0,0.0,65,0.00,,BKN,0.00,VWS V14.01,2013-11-10 14:50:00,
2013-11-10 08:55:00,58.6,46.9,29.77,North,0,0.0,0.0,65,0.00,,BKN,0.00,VWS V14.01,2013-11-10 14:55:00,
2013-11-10 09:00:00,58.8,47.1,29.77,North,0,0.0,0.0,65,0.00,,BKN,0.00,VWS V14.01,2013-11-10 15:00:00,
2013-11-10 09:05:00,58.8,46.7,29.80,North,0,0.0,0.0,64,0.00,,BKN,0.00,VWS V14.01,2013-11-10 15:05:00,
2013-11-10 09:10:00,58.8,46.7,29.80,North,0,0.0,0.0,64,0.00,,BKN,0.00,VWS V14.01,2013-11-10 15:10:00,
2013-11-10 09:16:00,58.8,46.7,29.80,North,0,0.0,0.0,64,0.00,,BKN,0.00,VWS V14.01,2013-11-10 15:16:00,
2013-11-10 09:21:00,58.8,46.7,29.80,North,0,0.0,0.0,64,0.00,,BKN,0.00,VWS V14.01,2013-11-10 15:21:00,
2013-11-10 09:26:00,59.0,46.8,29.80,North,0,0.0,0.0,64,0.00,,BKN,0.00,VWS V14.01,2013-11-10 15:26:00,
2013-11-10 09:31:00,59.2,47.0,29.80,North,0,0.0,0.0,64,0.00,,BKN,0.00,VWS V14.01,2013-11-10 15:31:00,
2013-11-10 09:36:00,59.2,47.0,29.80,North,0,0.0,0.0,64,0.00,,BKN,0.00,VWS V14.01,2013-11-10 15:36:00,
2013-11-10 09:41:00,59.4,46.8,29.80,North,0,0.0,0.0,63,0.00,,BKN,0.00,VWS V14.01,2013-11-10 15:41:00,
2013-11-10 09:46:00,59.4,46.8,29.80,North,0,0.0,0.0,63,0.00,,BKN,0.00,VWS V14.01,2013-11-10 15:46:00,
2013-11-10 09:52:00,59.5,47.4,29.80,North,0,0.0,0.0,64,0.00,,BKN,0.00,VWS V14.01,2013-11-10 15:52:00,
2013-11-10 09:57:00,59.7,47.1,29.80,North,0,0.0,0.0,63,0.00,,BKN,0.00,VWS V14.01,2013-11-10 15:57:00,
2013-11-10 10:02:00,59.9,47.3,29.80,North,0,0.0,0.0,63,0.00,,BKN,0.00,VWS V14.01,2013-11-10 16:02:00,
2013-11-10 10:07:00,60.1,47.5,29.80,North,0,0.0,0.0,63,0.00,,BKN,0.00,VWS V14.01,2013-11-10 16:07:00,
2013-11-10 10:12:00,60.1,47.5,29.80,North,0,0.0,0.0,63,0.00,,BKN,0.00,VWS V14.01,2013-11-10 16:12:00,
2013-11-10 10:17:00,60.3,47.6,29.80,North,0,0.0,0.0,63,0.00,,BKN,0.00,VWS V14.01,2013-11-10 16:17:00,
2013-11-10 10:22:00,60.4,47.4,29.80,North,0,0.0,0.0,62,0.00,,BKN,0.00,VWS V14.01,2013-11-10 16:22:00,
2013-11-10 10:28:00,60.6,47.5,29.80,North,0,0.0,0.0,62,0.00,,BKN,0.00,VWS V14.01,2013-11-10 16:28:00,
2013-11-10 10:33:00,60.6,47.1,29.80,North,0,0.0,0.0,61,0.00,,BKN,0.00,VWS V14.01,2013-11-10 16:33:00,
2013-11-10 10:38:00,60.6,46.7,29.77,North,0,0.0,0.0,60,0.00,,BKN,0.00,VWS V14.01,2013-11-10 16:38:00,
2013-11-10 10:43:00,60.6,46.7,29.77,North,0,0.0,0.0,60,0.00,,BKN,0.00,VWS V14.01,2013-11-10 16:43:00,
2013-11-10 10:48:00,60.8,46.4,29.77,North,0,0.0,0.0,59,0.00,,BKN,0.00,VWS V14.01,2013-11-10 16:48:00,
2013-11-10 10:53:00,61.0,46.6,29.77,North,0,0.0,0.0,59,0.00,,BKN,0.00,VWS V14.01,2013-11-10 16:53:00,
2013-11-10 10:59:00,61.0,46.6,29.77,North,0,0.0,0.0,59,0.00,,BKN,0.00,VWS V14.01,2013-11-10 16:59:00,
2013-11-10 11:04:00,61.2,46.7,29.77,North,0,0.0,0.0,59,0.00,,BKN,0.00,VWS V14.01,2013-11-10 17:04:00,
2013-11-10 11:09:00,61.3,46.9,29.77,North,0,0.0,0.0,59,0.00,,BKN,0.00,VWS V14.01,2013-11-10 17:09:00,
2013-11-10 11:14:00,61.3,47.3,29.77,North,0,0.0,0.0,60,0.00,,BKN,0.00,VWS V14.01,2013-11-10 17:14:00,
2013-11-10 11:19:00,61.5,47.5,29.77,North,0,0.0,0.0,60,0.00,,BKN,0.00,VWS V14.01,2013-11-10 17:19:00,
2013-11-10 11:25:00,61.7,47.2,29.77,North,0,0.0,0.0,59,0.00,,BKN,0.00,VWS V14.01,2013-11-10 17:25:00,
2013-11-10 11:30:00,61.7,47.2,29.77,North,0,0.0,0.0,59,0.00,,BKN,0.00,VWS V14.01,2013-11-10 17:30:00,
2013-11-10 11:35:00,61.9,47.4,29.77,North,0,0.0,0.0,59,0.00,,BKN,0.00,VWS V14.01,2013-11-10 17:35:00,
2013-11-10 11:40:00,62.1,47.6,29.77,North,0,0.0,0.0,59,0.00,,BKN,0.00,VWS V14.01,2013-11-10 17:40:00,
2013-11-10 11:45:00,62.2,47.3,29.77,North,0,0.0,0.0,58,0.00,,BKN,0.00,VWS V14.01,2013-11-10 17:45:00,
2013-11-10 11:50:00,62.4,46.5,29.77,North,0,0.0,0.0,56,0.00,,BKN,0.00,VWS V14.01,2013-11-10 17:50:00,
2013-11-10 11:55:00,62.6,46.7,29.77,North,0,0.0,0.0,56,0.00,,BKN,0.00,VWS V14.01,2013-11-10 17:55:00,
2013-11-10 12:01:00,62.8,46.9,29.77,North,0,0.0,0.0,56,0.00,,BKN,0.00,VWS V14.01,2013-11-10 18:01:00,
2013-11-10 12:06:00,63.0,46.6,29.77,North,0,0.0,0.0,55,0.00,,BKN,0.00,VWS V14.01,2013-11-10 18:06:00,
2013-11-10 12:11:00,63.0,46.1,29.77,North,0,0.0,0.0,54,0.00,,BKN,0.00,VWS V14.01,2013-11-10 18:11:00,
2013-11-10 12:16:00,63.1,46.2,29.77,North,0,0.0,0.0,54,0.00,,BKN,0.00,VWS V14.01,2013-11-10 18:16:00,
2013-11-10 12:21:00,63.3,45.9,29.77,North,0,0.0,0.0,53,0.00,,BKN,0.00,VWS V14.01,2013-11-10 18:21:00,
2013-11-10 12:26:00,63.5,46.6,29.77,North,0,0.0,0.0,54,0.00,,BKN,0.00,VWS V14.01,2013-11-10 18:26:00,
2013-11-10 12:31:00,63.5,47.1,29.77,North,0,0.0,0.0,55,0.00,,BKN,0.00,VWS V14.01,2013-11-10 18:31:00,
2013-11-10 12:37:00,63.7,46.7,29.77,North,0,0.0,0.0,54,0.00,,BKN,0.00,VWS V14.01,2013-11-10 18:37:00,
2013-11-10 12:42:00,63.7,46.7,29.77,North,0,0.0,0.0,54,0.00,,BKN,0.00,VWS V14.01,2013-11-10 18:42:00,
2013-11-10 12:47:00,63.9,46.9,29.77,North,0,0.0,0.0,54,0.00,,BKN,0.00,VWS V14.01,2013-11-10 18:47:00,
2013-11-10 12:52:00,64.2,47.2,29.74,North,0,0.0,0.0,54,0.00,,BKN,0.00,VWS V14.01,2013-11-10 18:52:00,
2013-11-10 12:57:00,65.1,46.6,29.74,North,0,0.0,0.0,51,0.00,,BKN,0.00,VWS V14.01,2013-11-10 18:57:00,
2013-11-10 13:03:00,65.3,46.2,29.74,North,0,0.0,0.0,50,0.00,,BKN,0.00,VWS V14.01,2013-11-10 19:03:00,
2013-11-10 13:08:00,64.9,46.4,29.74,North,0,0.0,0.0,51,0.00,,BKN,0.00,VWS V14.01,2013-11-10 19:08:00,
2013-11-10 13:13:00,64.8,46.7,29.74,North,0,0.0,0.0,52,0.00,,BKN,0.00,VWS V14.01,2013-11-10 19:13:00,
2013-11-10 13:18:00,64.8,46.7,29.74,North,0,0.0,0.0,52,0.00,,BKN,0.00,VWS V14.01,2013-11-10 19:18:00,
2013-11-10 13:23:00,64.9,46.9,29.74,North,0,0.0,0.0,52,0.00,,BKN,0.00,VWS V14.01,2013-11-10 19:23:00,
2013-11-10 13:29:00,64.8,46.7,29.74,North,0,0.0,0.0,52,0.00,,BKN,0.00,VWS V14.01,2013-11-10 19:29:00,
2013-11-10 13:34:00,64.9,46.9,29.74,North,0,0.0,0.0,52,0.00,,BKN,0.00,VWS V14.01,2013-11-10 19:34:00,
2013-11-10 13:39:00,65.1,47.6,29.74,North,0,0.0,0.0,53,0.00,,BKN,0.00,VWS V14.01,2013-11-10 19:39:00,
2013-11-10 13:44:00,65.3,47.2,29.74,North,0,0.0,0.0,52,0.00,,BKN,0.00,VWS V14.01,2013-11-10 19:44:00,
2013-11-10 13:49:00,65.3,46.7,29.74,North,0,0.0,0.0,51,0.00,,BKN,0.00,VWS V14.01,2013-11-10 19:49:00,
2013-11-10 13:54:00,65.3,46.7,29.71,North,0,0.0,0.0,51,0.00,,BKN,0.00,VWS V14.01,2013-11-10 19:54:00,
2013-11-10 13:59:00,65.5,46.9,29.71,North,0,0.0,0.0,51,0.00,,BKN,0.00,VWS V14.01,2013-11-10 19:59:00,
2013-11-10 14:05:00,65.3,46.7,29.71,North,0,0.0,0.0,51,0.00,,BKN,0.00,VWS V14.01,2013-11-10 20:05:00,
2013-11-10 14:10:00,65.3,45.7,29.71,North,0,0.0,0.0,49,0.00,,BKN,0.00,VWS V14.01,2013-11-10 20:10:00,
2013-11-10 14:15:00,65.5,46.4,29.71,North,0,0.0,0.0,50,0.00,,BKN,0.00,VWS V14.01,2013-11-10 20:15:00,
2013-11-10 14:20:00,65.7,46.5,29.71,North,0,0.0,0.0,50,0.00,,BKN,0.00,VWS V14.01,2013-11-10 20:20:00,
2013-11-10 14:25:00,65.7,46.0,29.71,North,0,0.0,0.0,49,0.00,,BKN,0.00,VWS V14.01,2013-11-10 20:25:00,
2013-11-10 14:30:00,65.5,45.8,29.71,North,0,0.0,0.0,49,0.00,,BKN,0.00,VWS V14.01,2013-11-10 20:30:00,
2013-11-10 14:35:00,65.7,46.5,29.71,North,0,0.0,0.0,50,0.00,,BKN,0.00,VWS V14.01,2013-11-10 20:35:00,
2013-11-10 14:41:00,65.7,46.0,29.71,North,0,0.0,0.0,49,0.00,,BKN,0.00,VWS V14.01,2013-11-10 20:41:00,
2013-11-10 14:46:00,65.8,46.7,29.71,North,0,0.0,0.0,50,0.00,,BKN,0.00,VWS V14.01,2013-11-10 20:46:00,
2013-11-10 14:51:00,65.7,45.5,29.71,North,0,0.0,0.0,48,0.00,,BKN,0.00,VWS V14.01,2013-11-10 20:51:00,
2013-11-10 14:56:00,65.7,46.0,29.71,North,0,0.0,0.0,49,0.00,,BKN,0.00,VWS V14.01,2013-11-10 20:56:00,
2013-11-10 15:01:00,65.8,46.7,29.71,North,0,0.0,0.0,50,0.00,,BKN,0.00,VWS V14.01,2013-11-10 21:01:00,
2013-11-10 15:07:00,66.0,46.9,29.71,North,0,0.0,0.0,50,0.00,,BKN,0.00,VWS V14.01,2013-11-10 21:07:00,
2013-11-10 15:12:00,66.0,46.3,29.71,North,0,0.0,0.0,49,0.00,,BKN,0.00,VWS V14.01,2013-11-10 21:12:00,
2013-11-10 15:17:00,65.8,46.2,29.71,North,0,0.0,0.0,49,0.00,,BKN,0.00,VWS V14.01,2013-11-10 21:17:00,
2013-11-10 15:22:00,65.8,46.2,29.71,North,0,0.0,0.0,49,0.00,,BKN,0.00,VWS V14.01,2013-11-10 21:22:00,
2013-11-10 15:28:00,65.8,46.2,29.71,North,0,0.0,0.0,49,0.00,,BKN,0.00,VWS V14.01,2013-11-10 21:28:00,
2013-11-10 15:33:00,65.8,46.2,29.71,North,0,0.0,0.0,49,0.00,,BKN,0.00,VWS V14.01,2013-11-10 21:33:00,
2013-11-10 15:38:00,65.7,46.0,29.71,North,0,0.0,0.0,49,0.00,,BKN,0.00,VWS V14.01,2013-11-10 21:38:00,
2013-11-10 15:43:00,65.7,46.0,29.71,North,0,0.0,0.0,49,0.00,,BKN,0.00,VWS V14.01,2013-11-10 21:43:00,
2013-11-10 15:48:00,65.7,44.3,29.71,North,0,0.0,0.0,46,0.00,,BKN,0.00,VWS V14.01,2013-11-10 21:48:00,
2013-11-10 15:53:00,65.7,44.9,29.71,North,0,0.0,0.0,47,0.00,,BKN,0.00,VWS V14.01,2013-11-10 21:53:00,
2013-11-10 15:59:00,65.7,44.9,29.71,North,0,0.0,0.0,47,0.00,,BKN,0.00,VWS V14.01,2013-11-10 21:59:00,
2013-11-10 16:04:00,65.5,44.7,29.71,North,0,0.0,0.0,47,0.00,,BKN,0.00,VWS V14.01,2013-11-10 22:04:00,
2013-11-10 16:09:00,65.5,44.7,29.71,North,0,0.0,0.0,47,0.00,,BKN,0.00,VWS V14.01,2013-11-10 22:09:00,
2013-11-10 16:14:00,65.5,45.8,29.71,North,0,0.0,0.0,49,0.00,,BKN,0.00,VWS V14.01,2013-11-10 22:14:00,
2013-11-10 16:19:00,66.4,46.7,29.71,North,0,0.0,0.0,49,0.00,,BKN,0.00,VWS V14.01,2013-11-10 22:19:00,
2013-11-10 16:24:00,66.2,46.0,29.71,North,0,0.0,0.0,48,0.00,,BKN,0.00,VWS V14.01,2013-11-10 22:24:00,
2013-11-10 16:29:00,65.7,45.5,29.71,North,0,0.0,0.0,48,0.00,,BKN,0.00,VWS V14.01,2013-11-10 22:29:00,
2013-11-10 16:35:00,65.1,45.5,29.71,North,0,0.0,0.0,49,0.00,,BKN,0.00,VWS V14.01,2013-11-10 22:35:00,
2013-11-10 16:40:00,64.6,45.5,29.71,North,0,0.0,0.0,50,0.00,,BKN,0.00,VWS V14.01,2013-11-10 22:40:00,
2013-11-10 16:45:00,64.4,45.4,29.71,North,0,0.0,0.0,50,0.00,,BKN,0.00,VWS V14.01,2013-11-10 22:45:00,
2013-11-10 16:50:00,64.0,46.1,29.71,North,0,0.0,0.0,52,0.00,,BKN,0.00,VWS V14.01,2013-11-10 22:50:00,
2013-11-10 16:55:00,63.9,45.9,29.71,North,0,0.0,0.0,52,0.00,,BKN,0.00,VWS V14.01,2013-11-10 22:55:00,
2013-11-10 17:00:00,63.7,46.2,29.71,North,0,0.0,0.0,53,0.00,,BKN,0.00,VWS V14.01,2013-11-10 23:00:00,
2013-11-10 17:05:00,63.5,46.6,29.71,North,0,0.0,0.0,54,0.00,,BKN,0.00,VWS V14.01,2013-11-10 23:05:00,
2013-11-10 17:10:00,63.1,46.2,29.71,North,0,0.0,0.0,54,0.00,,BKN,0.00,VWS V14.01,2013-11-10 23:10:00,
2013-11-10 17:15:00,63.0,46.1,29.71,North,0,0.0,0.0,54,0.00,,BKN,0.00,VWS V14.01,2013-11-10 23:15:00,
2013-11-10 17:20:00,62.6,46.2,29.71,North,0,0.0,0.0,55,0.00,,BKN,0.00,VWS V14.01,2013-11-10 23:20:00,
2013-11-10 17:26:00,62.2,46.4,29.71,North,0,0.0,0.0,56,0.00,,BKN,0.00,VWS V14.01,2013-11-10 23:26:00,
2013-11-10 17:31:00,61.9,46.5,29.71,North,0,0.0,0.0,57,0.00,,BKN,0.00,VWS V14.01,2013-11-10 23:31:00,
2013-11-10 17:36:00,61.5,46.6,29.71,North,0,0.0,0.0,58,0.00,,BKN,0.00,VWS V14.01,2013-11-10 23:36:00,
2013-11-10 17:41:00,61.2,46.3,29.71,North,0,0.0,0.0,58,0.00,,BKN,0.00,VWS V14.01,2013-11-10 23:41:00,
2013-11-10 17:46:00,61.0,46.6,29.71,North,0,0.0,0.0,59,0.00,,BKN,0.00,VWS V14.01,2013-11-10 23:46:00,
2013-11-10 17:51:00,60.8,46.8,29.71,North,0,0.0,0.0,60,0.00,,BKN,0.00,VWS V14.01,2013-11-10 23:51:00,
2013-11-10 17:57:00,60.4,46.5,29.71,North,0,0.0,0.0,60,0.00,,BKN,0.00,VWS V14.01,2013-11-10 23:57:00,
2013-11-10 18:02:00,60.1,46.6,29.71,North,0,0.0,0.0,61,0.00,,BKN,0.00,VWS V14.01,2013-11-11 00:02:00,
2013-11-10 18:07:00,59.7,46.7,29.71,North,0,0.0,0.0,62,0.00,,BKN,0.00,VWS V14.01,2013-11-11 00:07:00,
2013-11-10 18:12:00,59.5,47.0,29.71,North,0,0.0,0.0,63,0.00,,BKN,0.00,VWS V14.01,2013-11-11 00:12:00,
2013-11-10 18:17:00,59.4,47.2,29.71,North,0,0.0,0.0,64,0.00,,BKN,0.00,VWS V14.01,2013-11-11 00:17:00,
2013-11-10 18:22:00,59.4,47.2,29.71,North,0,0.0,0.0,64,0.00,,BKN,0.00,VWS V14.01,2013-11-11 00:22:00,
2013-11-10 18:27:00,59.2,47.0,29.71,North,0,0.0,0.0,64,0.00,,BKN,0.00,VWS V14.01,2013-11-11 00:27:00,
2013-11-10 18:32:00,59.0,46.8,29.71,North,0,0.0,0.0,64,0.00,,BKN,0.00,VWS V14.01,2013-11-11 00:32:00,
2013-11-10 18:37:00,58.8,47.1,29.71,North,0,0.0,0.0,65,0.00,,BKN,0.00,VWS V14.01,2013-11-11 00:37:00,
2013-11-10 18:43:00,58.5,46.8,29.71,North,0,0.0,0.0,65,0.00,,BKN,0.00,VWS V14.01,2013-11-11 00:43:00,
2013-11-10 18:48:00,58.3,47.0,29.71,North,0,0.0,0.0,66,0.00,,BKN,0.00,VWS V14.01,2013-11-11 00:48:00,
2013-11-10 18:53:00,58.1,46.8,29.71,North,0,0.0,0.0,66,0.00,,BKN,0.00,VWS V14.01,2013-11-11 00:53:00,
2013-11-10 18:58:00,58.1,46.8,29.71,North,0,0.0,0.0,66,0.00,,BKN,0.00,VWS V14.01,2013-11-11 00:58:00,
2013-11-10 19:03:00,57.9,46.6,29.71,North,0,0.0,0.0,66,0.00,,BKN,0.00,VWS V14.01,2013-11-11 01:03:00,
2013-11-10 19:08:00,57.7,46.9,29.71,North,0,0.0,0.0,67,0.00,,BKN,0.00,VWS V14.01,2013-11-11 01:08:00,
2013-11-10 19:13:00,57.6,46.7,29.71,North,0,0.0,0.0,67,0.00,,BKN,0.00,VWS V14.01,2013-11-11 01:13:00,
2013-11-10 19:19:00,57.6,46.7,29.71,North,0,0.0,0.0,67,0.00,,BKN,0.00,VWS V14.01,2013-11-11 01:19:00,
2013-11-10 19:24:00,57.4,46.5,29.71,North,0,0.0,0.0,67,0.00,,BKN,0.00,VWS V14.01,2013-11-11 01:24:00,
2013-11-10 19:29:00,57.2,46.4,29.71,North,0,0.0,0.0,67,0.00,,BKN,0.00,VWS V14.01,2013-11-11 01:29:00,
2013-11-10 19:34:00,57.0,46.6,29.71,North,0,0.0,0.0,68,0.00,,BKN,0.00,VWS V14.01,2013-11-11 01:34:00,
2013-11-10 19:39:00,56.8,46.4,29.71,North,0,0.0,0.0,68,0.00,,BKN,0.00,VWS V14.01,2013-11-11 01:39:00,
2013-11-10 19:44:00,56.7,46.6,29.71,North,0,0.0,0.0,69,0.00,,BKN,0.00,VWS V14.01,2013-11-11 01:44:00,
2013-11-10 19:50:00,56.5,46.5,29.71,North,0,0.0,0.0,69,0.00,,BKN,0.00,VWS V14.01,2013-11-11 01:50:00,
2013-11-10 19:55:00,56.5,46.5,29.71,North,0,0.0,0.0,69,0.00,,BKN,0.00,VWS V14.01,2013-11-11 01:55:00,
2013-11-10 20:00:00,56.3,46.7,29.71,North,0,0.0,0.0,70,0.00,,BKN,0.00,VWS V14.01,2013-11-11 02:00:00,
2013-11-10 20:05:00,56.1,46.5,29.71,North,0,0.0,0.0,70,0.00,,BKN,0.00,VWS V14.01,2013-11-11 02:05:00,
2013-11-10 20:10:00,56.1,46.5,29.71,North,0,0.0,0.0,70,0.00,,BKN,0.00,VWS V14.01,2013-11-11 02:10:00,
2013-11-10 20:16:00,55.9,46.3,29.71,North,0,0.0,0.0,70,0.00,,BKN,0.00,VWS V14.01,2013-11-11 02:16:00,
2013-11-10 20:21:00,55.9,46.3,29.71,North,0,0.0,0.0,70,0.00,,BKN,0.00,VWS V14.01,2013-11-11 02:21:00,
2013-11-10 20:26:00,55.8,46.1,29.71,North,0,0.0,0.0,70,0.00,,BKN,0.00,VWS V14.01,2013-11-11 02:26:00,
2013-11-10 20:31:00,55.9,46.7,29.71,North,0,0.0,0.0,71,0.00,,BKN,0.00,VWS V14.01,2013-11-11 02:31:00,
2013-11-10 20:36:00,57.4,48.4,29.74,North,0,0.0,0.0,72,0.00,,BKN,0.00,VWS V14.01,2013-11-11 02:36:00,
2013-11-10 20:41:00,58.5,49.5,29.74,North,0,0.0,0.0,72,0.00,,BKN,0.00,VWS V14.01,2013-11-11 02:41:00,
2013-11-10 20:46:00,59.2,49.8,29.74,North,0,0.0,0.0,71,0.00,,BKN,0.00,VWS V14.01,2013-11-11 02:46:00,
2013-11-10 20:51:00,59.4,49.6,29.71,North,0,0.0,0.0,70,0.00,,BKN,0.00,VWS V14.01,2013-11-11 02:51:00,
2013-11-10 20:57:00,58.1,47.6,29.71,North,0,0.0,0.0,68,0.00,,BKN,0.00,VWS V14.01,2013-11-11 02:57:00,
2013-11-10 21:02:00,56.8,46.4,29.71,North,0,0.0,0.0,68,0.00,,BKN,0.00,VWS V14.01,2013-11-11 03:02:00,
2013-11-10 21:07:00,56.3,45.9,29.74,North,0,0.0,0.0,68,0.00,,BKN,0.00,VWS V14.01,2013-11-11 03:07:00,
2013-11-10 21:12:00,55.9,45.5,29.74,North,0,0.0,0.0,68,0.00,,BKN,0.00,VWS V14.01,2013-11-11 03:12:00,
2013-11-10 21:17:00,55.6,45.2,29.74,North,0,0.0,0.0,68,0.00,,BKN,0.00,VWS V14.01,2013-11-11 03:17:00,
2013-11-10 21:22:00,55.0,45.1,29.74,North,0,0.0,0.0,69,0.00,,BKN,0.00,VWS V14.01,2013-11-11 03:22:00,
2013-11-10 21:27:00,54.9,44.9,29.74,North,0,0.0,0.0,69,0.00,,BKN,0.00,VWS V14.01,2013-11-11 03:27:00,
2013-11-10 21:33:00,54.7,45.1,29.74,North,0,0.0,0.0,70,0.00,,BKN,0.00,VWS V14.01,2013-11-11 03:33:00,
2013-11-10 21:38:00,54.5,44.9,29.71,North,0,0.0,0.0,70,0.00,,BKN,0.00,VWS V14.01,2013-11-11 03:38:00,
2013-11-10 21:43:00,54.3,45.1,29.71,North,0,0.0,0.0,71,0.00,,BKN,0.00,VWS V14.01,2013-11-11 03:43:00,
2013-11-10 21:48:00,54.1,45.0,29.71,North,0,0.0,0.0,71,0.00,,BKN,0.00,VWS V14.01,2013-11-11 03:48:00,
2013-11-10 21:53:00,54.1,45.0,29.71,North,0,0.0,0.0,71,0.00,,BKN,0.00,VWS V14.01,2013-11-11 03:53:00,
2013-11-10 21:58:00,54.1,45.0,29.71,North,0,0.0,0.0,71,0.00,,BKN,0.00,VWS V14.01,2013-11-11 03:58:00,
2013-11-10 22:03:00,54.0,45.2,29.71,North,0,0.0,0.0,72,0.00,,BKN,0.00,VWS V14.01,2013-11-11 04:03:00,
2013-11-10 22:08:00,53.8,45.0,29.71,North,0,0.0,0.0,72,0.00,,BKN,0.00,VWS V14.01,2013-11-11 04:08:00,
2013-11-10 22:14:00,53.8,45.0,29.71,North,0,0.0,0.0,72,0.00,,BKN,0.00,VWS V14.01,2013-11-11 04:14:00,
2013-11-10 22:19:00,53.6,44.8,29.71,North,0,0.0,0.0,72,0.00,,BKN,0.00,VWS V14.01,2013-11-11 04:19:00,
2013-11-10 22:24:00,53.4,45.0,29.71,North,0,0.0,0.0,73,0.00,,BKN,0.00,VWS V14.01,2013-11-11 04:24:00,
2013-11-10 22:29:00,53.4,45.0,29.71,North,0,0.0,0.0,73,0.00,,BKN,0.00,VWS V14.01,2013-11-11 04:29:00,
2013-11-10 22:34:00,53.4,45.0,29.71,North,0,0.0,0.0,73,0.00,,BKN,0.00,VWS V14.01,2013-11-11 04:34:00,
2013-11-10 22:39:00,53.2,44.8,29.71,North,0,0.0,0.0,73,0.00,,BKN,0.00,VWS V14.01,2013-11-11 04:39:00,
2013-11-10 22:45:00,53.2,44.8,29.71,North,0,0.0,0.0,73,0.00,,BKN,0.00,VWS V14.01,2013-11-11 04:45:00,
2013-11-10 22:50:00,53.1,44.7,29.71,North,0,0.0,0.0,73,0.00,,BKN,0.00,VWS V14.01,2013-11-11 04:50:00,
2013-11-10 22:55:00,53.1,45.0,29.71,North,0,0.0,0.0,74,0.00,,BKN,0.00,VWS V14.01,2013-11-11 04:55:00,
2013-11-10 23:00:00,53.1,45.0,29.71,North,0,0.0,0.0,74,0.00,,BKN,0.00,VWS V14.01,2013-11-11 05:00:00,
2013-11-10 23:01:00,53.1,45.0,29.71,North,0,0.0,0.0,74,0.00,,BKN,0.00,VWS V14.01,2013-11-11 05:01:00,
2013-11-10 23:02:00,53.1,45.0,29.71,North,0,0.0,0.0,74,0.00,,BKN,0.00,VWS V14.01,2013-11-11 05:02:00,
2013-11-10 23:03:00,53.1,45.0,29.71,North,0,0.0,0.0,74,0.00,,BKN,0.00,VWS V14.01,2013-11-11 05:03:00,
2013-11-10 23:04:00,52.9,44.8,29.71,North,0,0.0,0.0,74,0.00,,BKN,0.00,VWS V14.01,2013-11-11 05:04:00,
2013-11-10 23:09:00,52.9,44.8,29.71,North,0,0.0,0.0,74,0.00,,BKN,0.00,VWS V14.01,2013-11-11 05:09:00,
2013-11-10 23:15:00,52.7,44.7,29.71,North,0,0.0,0.0,74,0.00,,BKN,0.00,VWS V14.01,2013-11-11 05:15:00,
2013-11-10 23:20:00,52.7,44.7,29.71,North,0,0.0,0.0,74,0.00,,BKN,0.00,VWS V14.01,2013-11-11 05:20:00,
2013-11-10 23:25:00,52.5,44.5,29.71,North,0,0.0,0.0,74,0.00,,BKN,0.00,VWS V14.01,2013-11-11 05:25:00,
2013-11-10 23:30:00,52.5,44.5,29.71,North,0,0.0,0.0,74,0.00,,BKN,0.00,VWS V14.01,2013-11-11 05:30:00,
2013-11-10 23:35:00,52.5,44.5,29.71,North,0,0.0,0.0,74,0.00,,BKN,0.00,VWS V14.01,2013-11-11 05:35:00,
2013-11-10 23:40:00,52.5,44.5,29.71,North,0,0.0,0.0,74,0.00,,BKN,0.00,VWS V14.01,2013-11-11 05:40:00,
2013-11-10 23:45:00,52.3,44.3,29.71,North,0,0.0,0.0,74,0.00,,BKN,0.00,VWS V14.01,2013-11-11 05:45:00,
2013-11-10 23:50:00,52.3,44.3,29.71,North,0,0.0,0.0,74,0.00,,BKN,0.00,VWS V14.01,2013-11-11 05:50:00,
2013-11-10 23:56:00,52.2,44.1,29.71,North,0,0.0,0.0,74,0.00,,BKN,0.00,VWS V14.01,2013-11-11 05:56:00,